Regional Weather Roundup
Issued by NWS Green Bay, WI

Home | Current Version | Previous Version | Text Only | Print | Product List | Glossary On
Versions: 1 2 3 4 5 6 7 8 9 10 11 12 13 14 15 16 17 18 19 20 21 22 23 24 25 26 27 28 29 30 31 32 33 34 35 36 37 38 39 40 41 42 43 44 45 46 47 48 49 50
000
ASUS43 KGRB 290411
RWRGRB

NORTH-CENTRAL AND NORTHEAST WISCONSIN REGIONAL WEATHER ROUNDUP
NATIONAL WEATHER SERVICE GREEN BAY WI
1100 PM CDT THU APR 28 2016

WIZ005-009-010>012-018-019-290500-
NORTH CENTRAL WISCONSIN

CITY           SKY/WX    TMP DP  RH WIND       PRES   REMARKS
IRONWOOD       PTCLDY    36  28  75 CALM      30.08S
MANITOWISH WTR CLOUDY    40  24  53 NE6       30.08S
ARBOR VITAE    CLOUDY    44  28  52 CALM      30.07S
EAGLE RIVER    CLOUDY    45  21  39 CALM      30.07S
LAND O LAKES   CLOUDY    41  23  49 E6        30.10R
RHINELANDER    LGT RAIN  39  34  82 SE8       30.11R
PHILLIPS       CLOUDY    42  32  68 S7        30.08R
ANTIGO         LGT RAIN  35  34  96 CALM      30.10S
TOMAHAWK       LGT RAIN  40  34  77 SE5       30.11R
MERRILL        DRIZZLE   38  37  96 SE3       30.11R
$$

WIZ013-073-290500-
NORTHEAST WISCONSIN

CITY           SKY/WX    TMP DP  RH WIND       PRES   REMARKS
IRON MOUNTAIN  CLOUDY    41  24  51 N6        30.09S
MARINETTE      CLOUDY    43  28  56 NE6       30.09S
OCONTO         CLOUDY    42  31  66 N5        30.08S
$$

WIZ017-030-035>037-045-290500-
CENTRAL WISCONSIN

CITY           SKY/WX    TMP DP  RH WIND       PRES   REMARKS
MEDFORD        CLOUDY    37  36  99 CALM      30.09S
WAUSAU         LGT RAIN  39  35  86 E5        30.08F
MOSINEE        DRIZZLE   36  36 100 NE6       30.10F
MARSHFIELD     LGT RAIN  38  35  89 E6        30.09S
WISC RAPIDS    CLOUDY    38  33  82 NE8       30.10S
STEVENS POINT  LGT RAIN  35  34  96 N8        30.09F
WAUPACA        CLOUDY    41  33  73 N5        30.08F
SHAWANO        DRIZZLE   41  37  85 N13       30.10R
CLINTONVILLE   CLOUDY    37  34  87 NE9       30.09S
WAUTOMA        CLOUDY    39  35  86 NE6       30.08
$$

WIZ038-039-048-051-290500-
FOX VALLEY

CITY           SKY/WX    TMP DP  RH WIND       PRES   REMARKS
NWS GREEN BAY  CLOUDY    43  32  65 N6        30.07F
APPLETON       CLOUDY    41  30  65 N6        30.06R
OSHKOSH        CLOUDY    43  32  65 NE7       30.06S
FOND DU LAC    CLOUDY    42  35  76 NE5       30.06F
$$

WIZ022-050-052-290500-
EAST CENTRAL WISCONSIN

CITY           SKY/WX    TMP DP  RH WIND       PRES   REMARKS
EPHRAIM        CLOUDY    41  32  69 CALM      30.08S
STURGEON BAY   CLOUDY    43  28  56 NE8       30.10S
MANITOWOC      CLOUDY    42  34  73 MISG      30.07R
SHEBOYGAN      CLOUDY    41  35  79 N3        30.06R
$$

LMZ563-521-522-541>543-290500-
LAKESHORE

STATION/POSITION TIME  TEMP    WIND        PRES    VSBY  WAVE
                       AIR SEA DIR/SP/G                  HT/PER
                 (UTC) (F)     (DEG/KT/KT) (MB)    (MI)  (FT/S)
SHEBOYGAN LKSHOR 0400   41      30/  9/ 11 1018.7R
KEWAUNEE LKSHORE 0300   41                 1017.5S
ALGOMA MARINA    0345           60/ 17/ 20   N/A
NORTHPORT PIER   0300   43      60/  8/ 10 1018.6S
CHAMBERS ISLAND  0300   40     350/  3/  5 1019.3R
MENOMINEE LKSHOR 0300   43                 1017.6R
$$




USA.gov is the U.S. government's official web portal to all federal, state and local government web resources and services.